Home > Weather > George Town > Past weeks

Flag for Malaysia Weather for the Past 2 Weeks in George Town, Malaysia

Now
84 °F

Broken clouds.


Feels Like: 96 °F
Forecast: 78 / 88 °F
Wind: 6 mph from North

Location: Penang / Bayan Lepas

Current Time: Feb 12, 2016 at 11:42:14 AM

Latest Report: Feb 12, 2016 at 10:30 AM


Visibility: 6 mi

Pressure: 29.86 "Hg

Humidity: 84%

Dew point: 79 °F

Location of George TownLocation

Historic Weather in George Town — Graph

°F

George Town Temperature Yesterday

Maximum temperature yesterday: 88 °F (at 12:00 PM)
Minimum temperature yesterday: 79 °F (at 3:30 AM)
Average temperature yesterday: 82 °F

High & Low Weather Summary for the Past Weeks

 TemperatureHumidityPressure
High91 °F (Jan 29, 4:00 PM)100% (Feb 5, 5:30 PM)29.92 "Hg (Feb 5, 5:30 PM)
Low75 °F (Feb 5, 5:30 PM)52% (Feb 1, 1:30 PM)29.71 "Hg (Feb 5, 4:00 PM)
Average82 °F78%29.82 "Hg
* Reported Jan 28 10:30 AM — Feb 12 10:30 AM, George Town, Weather by CustomWeather, © 2016

Note: Actual official high and low records may vary slightly from our data, if they occured in-between our weather recording intervals... More about our weather records

Advertising

George Town Weather History for the Previous 24 Hours

 ConditionsComfort  
Time TempWeatherWind HumidityBarometerVisibility
10:30 AM
Fri, Feb 12
84 °FBroken clouds.6 mph84%29.86 "Hg6 mi
10:00 AM81 °FBroken clouds.7 mph89%29.86 "Hg5 mi
9:30 AM81 °FBroken clouds.7 mph89%29.86 "Hg5 mi
9:00 AM81 °FBroken clouds.7 mph89%29.86 "Hg5 mi
8:30 AM79 °FPartly sunny.5 mph89%29.83 "Hg5 mi
8:00 AM79 °FPartly sunny.3 mph89%29.83 "Hg5 mi
7:30 AM77 °FPartly cloudy.3 mph94%29.83 "Hg5 mi
7:00 AM77 °FPartly cloudy.3 mph94%29.83 "Hg5 mi
6:30 AM79 °FPartly cloudy.6 mph89%29.80 "Hg5 mi
5:30 AM79 °FPartly cloudy.6 mph94%29.80 "Hg5 mi
5:00 AM79 °FThunderstorms. Partly cloudy.6 mph94%29.80 "Hg5 mi
4:30 AM79 °FThunderstorms. Partly cloudy.9 mph94%29.80 "Hg5 mi
4:00 AM79 °FThunderstorms. Partly cloudy.9 mph94%29.80 "Hg5 mi
3:30 AM79 °FThunderstorms. Partly cloudy.5 mph94%29.83 "Hg5 mi
3:00 AM79 °FPartly cloudy.6 mph94%29.83 "Hg5 mi
2:30 AM79 °FPassing clouds.No wind94%29.83 "Hg6 mi
2:00 AM79 °FPassing clouds.No wind94%29.83 "Hg6 mi
1:30 AM79 °FPassing clouds.1 mph94%29.86 "Hg6 mi
1:00 AM79 °FPassing clouds.No wind94%29.86 "Hg6 mi
12:30 AM79 °FPassing clouds.No wind94%29.86 "Hg6 mi
12:00 AM79 °FPassing clouds.No wind94%29.86 "Hg6 mi
11:30 PM
Thu, Feb 11
79 °FPassing clouds.No wind94%29.86 "Hg6 mi
11:00 PM79 °FPartly cloudy.No wind94%29.86 "Hg6 mi
10:30 PM79 °FPartly cloudy.No wind94%29.86 "Hg6 mi
10:00 PM79 °FPartly cloudy.3 mph94%29.83 "Hg6 mi
9:30 PM79 °FPartly cloudy.5 mph94%29.83 "Hg6 mi
9:00 PM81 °FLight rain. Partly cloudy.5 mph89%29.83 "Hg5 mi
8:30 PM81 °FLight rain. Partly cloudy.6 mph89%29.83 "Hg5 mi
8:00 PM81 °FLight rain. Partly cloudy.7 mph94%29.80 "Hg5 mi
7:30 PM82 °FBroken clouds.8 mph89%29.80 "Hg5 mi
7:00 PM84 °FBroken clouds.2 mph79%29.77 "Hg5 mi
6:30 PM84 °FBroken clouds.1 mph79%29.77 "Hg5 mi
6:00 PM84 °FPartly sunny.2 mph79%29.74 "Hg6 mi
5:30 PM84 °FPartly sunny.6 mph79%29.74 "Hg6 mi
5:00 PM84 °FPartly sunny.8 mph79%29.74 "HgN/A
4:30 PM86 °FPartly sunny.6 mph75%29.74 "HgN/A
4:00 PM86 °FBroken clouds.8 mph75%29.74 "HgN/A
3:30 PM86 °FBroken clouds.8 mph79%29.77 "HgN/A
3:00 PM88 °FBroken clouds.9 mph75%29.77 "HgN/A
2:30 PM88 °FBroken clouds.10 mph75%29.77 "HgN/A
2:00 PM86 °FBroken clouds.12 mph75%29.80 "HgN/A
1:30 PM86 °FBroken clouds.9 mph79%29.80 "Hg6 mi
1:00 PM88 °FBroken clouds.12 mph75%29.80 "Hg6 mi
12:30 PM86 °FBroken clouds.10 mph79%29.83 "Hg6 mi
12:00 PM88 °FBroken clouds.5 mph70%29.83 "Hg6 mi
11:30 AM86 °FBroken clouds.6 mph75%29.83 "HgN/A
Weather by CustomWeather, © 2016

See weather overviewHow to use our weather pages